Location: Aulnoy
(48.8410°N, 3.0967°E)
Time: 11:43:47
(UTC+00:00)

Daily predictions for brighter satellites

Satellite Brightness Start Highest point End
(mag) Time Altitude Azimuth Time Altitude Azimuth Time Altitude Azimuth
USA 281 3.6 17:23:59 10° NNE 17:30:31 70° WNW 17:37:02 10° SW
Cosmos 1825 2.0 17:28:03 10° S 17:31:44 74° E 17:35:25 10° NNE
USA 215 3.3 17:26:43 10° ESE 17:33:16 77° NNE 17:39:51 10° NW
Cosmos 540 Rocket 4.1 17:33:54 10° NNW 17:38:59 62° WSW 17:44:01 10° S
Cosmos 2322 4.3 17:35:38 10° S 17:40:50 38° ESE 17:46:04 10° NE
Cosmos 1892 3.7 17:39:21 10° SSW 17:43:00 49° WNW 17:46:41 10° N
Radarsat Rocket 4.3 17:37:32 10° SSE 17:43:49 88° WSW 17:51:01 10° NNW
ATLAS 2AS CENTAUR R/B 4.5 17:37:42 10° NW 17:43:54 36° WSW 17:49:47 10° S
Nadezhda 2 Rocket 4.5 17:38:21 10° N 17:44:33 89° E 17:50:40 10° S
Cosmos 1626 Rocket 4.5 17:41:59 10° SE 17:45:33 26° E 17:49:10 10° NNE
Cosmos 1340 2.5 17:43:21 10° N 17:47:02 73° ENE 17:50:42 10° SSE
Cosmos 1844 Rocket 4.0 17:42:26 10° NW 17:47:42 44° WSW 17:52:57 10° S
Lacrosse 4 Rocket 3.5 17:52:03 10° N 17:53:54 12° NNE 17:55:32 10° NE
Cosmos 1461 4.2 17:50:13 10° WSW 17:54:19 39° NW 17:58:35 10° NNE
CZ-4 R/B 2.5 17:51:39 10° ESE 17:54:55 24° ENE 17:58:08 10° NNE
CZ-4 R/B 4.4 17:52:28 10° SSE 17:56:35 79° ENE 18:00:43 10° N
SL-08 R/B 3.9 17:53:55 10° N 17:58:51 66° WNW 18:03:43 10° SSW
PAYLOAD B 4.3 17:54:42 10° SSE 18:00:05 59° ENE 18:05:29 10° N
Cosmos 841 Rocket 4.0 17:55:53 10° NNW 18:01:08 67° WSW 18:06:18 10° S
Cosmos 1814 Rocket 4.0 17:56:05 10° NNW 18:01:26 64° ENE 18:06:45 10° SE
Cosmos 1869 3.7 18:01:37 10° NNW 18:05:32 66° W 18:09:27 10° S
DMSP B5D2-2 4.4 18:03:41 10° N 18:08:57 69° WNW 18:14:09 10° SSW
Cosmos 2058 4.1 18:06:26 10° SE 18:09:35 21° E 18:12:09 13° NE
PSLV R/B 3.7 18:06:24 10° SSE 18:10:01 54° ENE 18:13:45 10° N
ATLAS 5 CENTAUR R/B 3.7 18:08:30 10° NNW 18:11:30 17° NNE 18:13:56 13° NE
Cosmos 1386 Rocket 4.4 18:06:23 10° N 18:12:27 79° E 18:18:32 10° SSE
Cosmos 2315 Rocket 4.5 18:07:25 10° SSE 18:13:12 39° E 18:19:02 10° NNE
Cosmos 1850 Rocket 4.1 18:08:13 10° SSW 18:13:25 82° WNW 18:18:37 10° NNE
SKYMED 2 3.6 18:09:40 10° NNE 18:14:03 82° WNW 18:18:23 10° SSW
Okean O Rocket 2.2 18:10:46 10° SE 18:14:47 36° ENE 18:18:52 10° N
YAOGAN 1 2.5 18:10:52 10° SSE 18:15:07 59° ENE 18:19:23 10° N
Cosmos 2219 Rocket 2.1 18:10:13 10° SSW 18:15:48 82° ESE 18:21:27 10° NNE
CZ-4B R/B 3.2 18:11:11 10° SE 18:16:27 57° ENE 18:21:52 10° N
BlueWalker 3 1.9 18:13:05 10° WNW 18:17:00 89° NNE 18:19:40 19° ESE
Cosmos 2360 Rocket 3.1 18:14:29 10° SW 18:19:58 50° NW 18:25:30 10° NNE
Cosmos 1356 3.1 18:16:58 10° N 18:19:59 55° ENE 18:23:00 10° SSE
Cosmos 1606 2.5 18:17:23 10° N 18:21:13 76° E 18:25:01 10° SSE
Cosmos 2058 Rocket 3.9 18:17:31 10° NNW 18:21:52 55° W 18:26:12 10° S
CZ-4B DEB 4.4 18:16:44 10° S 18:22:11 75° WSW 18:27:42 10° NNW
Cosmos-2242 3.3 18:18:40 10° N 18:22:43 42° ENE 18:26:45 10° SSE
Cosmos 1745 Rocket 3.9 18:16:49 10° N 18:23:06 87° E 18:29:15 10° S
Lacrosse 5 2.8 18:18:42 10° W 18:23:30 39° NNW 18:27:06 17° NE
Okean 1-7 Rocket 3.6 18:20:04 10° S 18:24:27 61° E 18:28:53 10° NNE
Cosmos 1741 Rocket 4.3 18:19:51 10° SSW 18:25:09 70° WNW 18:30:30 10° NNE
Okean-O 4.1 18:28:31 20° NE 18:28:31 20° NE 18:31:06 10° NNE
SOICAL CYLINDER 4.3 18:27:56 10° SSW 18:30:44 63° ESE 18:31:19 47° ENE
BREEZE-M DEB (TANK) 3.8 18:16:40 10° SW 18:30:59 62° SSE 18:33:28 27° E
Cosmos 2237 Rocket 3.0 18:27:28 10° SSE 18:32:16 29° ESE 18:33:55 25° ENE
NOSS 8 (A) 4.2 18:28:49 10° SW 18:32:34 77° SE 18:33:43 36° NE
MINOTAUR 4 R/B 4.0 18:31:48 18° NNE 18:34:11 52° E 18:37:32 10° S
Cosmos 1400 Rocket 4.5 18:30:51 10° SSE 18:32:08 18° SE 18:32:08 18° SE
Lacrosse 5 rocket 4.4 18:34:25 10° WSW 18:35:04 10° SW 18:35:43 10° SW
Cosmos 968 Rocket 3.4 18:30:04 10° S 18:35:13 65° ESE 18:40:27 10° NNE
Cosmos 2278 Rocket 2.2 18:30:14 10° NNW 18:35:54 63° ENE 18:41:02 12° SE
SJ-6B 3.5 18:36:32 33° ENE 18:36:40 33° ENE 18:40:18 10° N
Cosmos 2322 Rocket 3.9 18:31:59 10° WSW 18:36:52 30° NW 18:41:46 10° NNE
Cosmos 1709 Rocket 3.8 18:34:35 10° N 18:40:45 78° E 18:46:51 10° SSE
ATLAS CENTAUR R/B 4.0 18:42:12 10° NNW 18:43:10 11° N 18:44:08 10° N
Cosmos 1980 4.2 18:38:22 10° S 18:43:28 37° ESE 18:45:15 29° ENE
Resurs 1-3 4.4 18:44:19 30° NE 18:44:19 30° NE 18:47:43 10° N
Cosmos 2208 Rocket 3.9 18:39:41 10° NNW 18:44:54 71° ENE 18:49:56 11° SSE
CSL-04 Debris 4.4 18:42:07 20° SE 18:45:26 44° ENE 18:50:32 10° N
CSL-04 Rocket 4.0 18:43:56 27° ESE 18:46:14 40° ENE 18:51:18 10° N
Cosmos 2369 Rocket 3.9 18:43:11 10° N 18:46:35 16° NE 18:46:47 16° NE
USA 81 4.0 18:41:39 10° S 18:46:55 85° E 18:52:14 10° N
Iridium 2 3.5 18:43:24 10° N 18:47:03 83° W 18:50:40 10° S
Cosmos 1943 Rocket 2.8 18:42:23 10° NNW 18:47:33 34° NE 18:48:39 32° ENE
Cosmos 2333 Rocket 3.2 18:44:05 10° SW 18:49:31 45° NW 18:55:00 10° NNE
Cosmos 1570 Rocket 4.1 18:45:37 10° NNW 18:51:00 83° WSW 18:56:19 10° SSE
IGS 5A 3.3 18:52:11 28° SE 18:54:11 63° ENE 18:58:15 10° N
Cosmos 1602 Rocket 3.4 18:50:02 10° S 18:54:19 82° E 18:58:40 10° NNE
Cosmos 1356 Rocket 3.1 18:50:39 10° S 18:54:35 70° E 18:56:49 25° NNE
Cosmos 44 Rocket 4.4 18:51:04 10° WSW 18:55:31 41° NW 18:59:07 15° NNE
SL-16 R/B 4.5 18:52:26 10° W 18:56:25 19° NW 19:00:25 10° N
Cosmos 883 Rocket 4.5 18:53:46 10° S 19:00:05 89° W 19:06:29 10° N
Spot 1 3.8 18:59:32 38° NNE 19:00:59 68° ESE 19:05:03 10° S
Cosmos 2074 Rocket 4.3 18:55:12 10° N 19:01:13 44° ENE 19:03:04 36° ESE
COSMOS 2428 2.8 18:58:06 10° SW 19:03:47 74° WNW 19:09:08 12° NNE
Cosmos 2184 Rocket 4.2 18:58:58 10° N 19:04:58 45° ENE 19:06:16 40° ESE
SL-4 R/B 3.7 19:03:49 10° W 19:06:46 24° SW 19:08:15 19° S
Gblst 52 Del rocket 4.1 19:02:52 10° WNW 19:08:26 71° N 19:09:53 49° ENE
Cosmos 1758 Rocket 3.5 19:05:02 10° SSW 19:09:23 81° W 19:13:48 10° N
NOSS 0 Rocket 3.8 19:03:14 10° SSW 19:09:26 72° ESE 19:13:26 24° NE
Cosmos 1812 Rocket 4.0 19:05:10 10° NNW 19:09:36 62° W 19:13:57 10° S
Landsat 7 3.6 19:15:21 66° E 19:15:31 67° ENE 19:20:14 10° N
USA 215 4.3 19:10:27 10° SSE 19:16:35 42° SW 19:22:46 10° WNW
Cosmos 2154 Rocket 4.3 19:11:37 10° N 19:17:23 43° ENE 19:17:23 43° ENE
Meteor 2-2 Rocket 4.3 19:20:46 10° NNW 19:26:28 77° W 19:32:14 10° S
CZ-4 R/B 2.9 19:25:53 10° SSW 19:29:39 36° W 19:33:22 10° NNW
Lacrosse 4 Rocket 2.8 19:29:18 10° NNW 19:31:44 30° N 19:31:44 30° N
Resurs 01 Rocket 3.8 19:40:04 16° N 19:40:04 16° N 19:41:05 10° N
Cosmos 2221 4.5 19:34:38 10° N 19:36:00 20° N 19:36:00 20° N
Cosmos 2285 Rocket 3.9 19:34:46 10° NNW 19:41:01 66° ENE 19:41:01 66° ENE
Cosmos 2058 4.2 19:42:15 10° SW 19:46:09 38° WNW 19:48:30 20° NNW
Okean O Rocket 3.6 19:47:24 10° SSW 19:51:11 28° W 19:55:00 10° NW
BlueWalker 3 4.3 19:52:13 10° W 19:54:29 20° WSW 19:54:29 20° WSW
ATLAS 5 CENTAUR R/B 3.3 19:52:23 10° NNW 19:55:18 31° N 19:55:18 31° N
Cosmos 2219 Rocket 4.2 19:56:02 10° W 20:00:27 23° NW 20:04:52 10° N
Okean-O 4.3 20:06:03 28° NW 20:06:03 28° NW 20:08:19 10° NNW
Lacrosse 5 3.3 20:02:48 10° WNW 20:06:18 30° NNW 20:06:18 30° NNW
Cosmos 2237 Rocket 2.8 20:10:27 10° SW 20:15:51 54° WNW 20:15:51 54° WNW
Cosmos 2278 Rocket 4.2 20:15:05 10° NW 20:19:31 24° WSW 20:22:59 14° SSW
Cosmos 909 Rocket 4.3 20:12:47 10° NW 20:19:29 70° W 20:19:29 70° W
Cosmos 1943 Rocket 3.3 20:26:03 10° NW 20:30:12 41° WNW 20:30:12 41° WNW
Cosmos 2369 Rocket 3.9 20:26:16 10° NNW 20:28:35 25° NNW 20:28:35 25° NNW
BREEZE-M DEB (TANK) 4.4 20:25:32 10° WSW 20:39:13 64° SSW 20:39:13 64° SSW
